This demonstration page uses our WeatherBlox Daily Observations layout. Learn more.

38.80484, -77.04692

Hourly Observations for July 6, 2020

Temp ( °F °C ) Dew Point ( °F °C ) Humidity (%) Winds ( mph kmh ) Pressure ( in mb ) Visibility ( mi km ) Precip ( " mm )
12:52 am 00:52 Clear 78 25.6 73 22.8 85 85 SSW 9 15 30 1016 10 16.0934 0 0
1:52 am 01:52 Clear 80 26.7 73 22.8 79 79 S 5 7 29.99 1016 10 16.0934 0 0
2:52 am 02:52 Clear 79 26.1 73 22.8 82 82 SSW 5 7 29.98 1015 10 16.0934 0 0
3:52 am 03:52 Mostly Clear 78 25.6 74 23.3 87 87 S 6 9 29.98 1015 10 16.0934 0 0
4:52 am 04:52 Mostly Cloudy 78 25.6 74 23.3 87 87 SSE 8 13 29.99 1016 10 16.0934 0 0
5:52 am 05:52 Partly Cloudy 78 25.6 74 23.3 87 87 SSW 6 9 30 1016 9 14.48406 0 0
6:52 am 06:52 Mostly Cloudy 79 26.1 73 22.8 82 82 SSW 5 7 30.01 1016 10 16.0934 0 0
7:52 am 07:52 Cloudy 80 26.7 73 22.8 79 79 S 6 9 30.03 1017 10 16.0934 0 0
8:52 am 08:52 Cloudy 80 26.7 73 22.8 79 79 SSW 7 11 30.05 1018 10 16.0934 0 0
9:52 am 09:52 Cloudy 81 27.2 73 22.8 77 77 SSW 6 9 30.04 1017 10 16.0934 0 0
10:52 am 10:52 Partly Cloudy 85 29.4 74 23.3 70 70 S 8 13 30.05 1018 10 16.0934 0 0
11:52 am 11:52 Partly Cloudy 87 30.6 74 23.3 65 65 SSE 8 13 30.04 1017 10 16.0934 0 0
12:52 pm 12:52 Partly Cloudy 90 32.2 75 23.9 62 62 S 12 19 30.04 1017 10 16.0934 0 0
1:52 pm 13:52 Partly Cloudy 94 34.4 74 23.3 52 52 S 13 20 30.01 1016 10 16.0934 0 0
2:52 pm 14:52 Partly Cloudy 95 35 72 22.2 47 47 SSW 9 15 29.99 1016 10 16.0934 0 0
3:52 pm 15:52 Partly Cloudy 94 34.4 75 23.9 54 54 S 14 22 29.97 1015 10 16.0934 0 0
4:52 pm 16:52 Mostly Cloudy 93 33.9 74 23.3 54 54 S 13 20 29.96 1015 10 16.0934 0 0
5:27 pm 17:27 Mostly Cloudy with Light Thunderstorms 95 35 70 21.1 44 44 S 14 22 29.96 1014 10 16.0934 0.001 0.001
5:52 pm 17:52 Mostly Cloudy with Light Thunderstorms 90 32.2 72 22.2 56 56 S 16 26 29.93 1014 10 16.0934 0.001 0.001
6:00 pm 18:00 Mostly Cloudy with Nearby Thunderstorms 88 31.1 75 23.9 66 66 S 14 22 29.93 1013 8 12.87472 0.001 0.001
6:19 pm 18:19 Windy with Storms Likely 85 29.4 68 20 57 57 S 26 43 29.94 1014 7 11.26538 0.001 0.001
6:22 pm 18:22 Very Windy with Storms Likely 82 27.8 70 21.1 67 67 S 41 67 29.95 1014 1.75 2.816345 0.001 0.001
6:23 pm 18:23 Very Windy with Storms Likely 81 27.2 70 21.1 69 69 S 43 69 29.95 1014 1.25 2.011675 0.02 0.508
6:31 pm 18:31 Mostly Cloudy with Heavy Thunderstorms 78 25.6 69 20.6 74 74 SE 33 54 29.96 1014 0.75 1.207005 0.12 3.048
6:37 pm 18:37 Very Windy with Storms Likely 77 25 70 21.1 79 79 ESE 44 70 29.94 1014 1.5 2.41401 0.14 3.556
6:40 pm 18:40 Windy with Storms Likely 76 24.4 68 20 77 77 ESE 35 56 29.94 1014 3 4.82802 0.14 3.556
6:45 pm 18:45 Windy with Storms Likely 78 25.6 69 20.6 74 74 ESE 33 54 29.94 1014 9 14.48406 0.14 3.556
6:52 pm 18:52 Mostly Cloudy with Thunderstorms 77 25 69 20.6 77 77 ESE 35 56 29.94 1014 10 16.0934 0.14 3.556
7:17 pm 19:17 Cloudy with Light Thunderstorms 76 24.4 69 20.6 79 79 N 18 30 30 1016 10 16.0934 0.001 0.001
7:52 pm 19:52 Mostly Cloudy with Thunderstorms 76 24.4 70 21.1 82 82 E 17 28 30 1016 10 16.0934 0.001 0.001
7:58 pm 19:58 Cloudy with Nearby Thunderstorms 77 25 70 21.1 79 79 ESE 12 19 30 1016 10 16.0934 0 0
8:20 pm 20:20 Mostly Cloudy with Thunderstorms 78 25.6 70 21.1 76 76 Calm 29.98 1015 10 16.0934 0 0
8:52 pm 20:52 Mostly Cloudy with Nearby Thunderstorms 78 25.6 70 21.1 76 76 SSE 6 9 30 1016 10 16.0934 0 0
9:02 pm 21:02 Mostly Cloudy with Thunderstorms 78 25.6 71 21.7 79 79 S 7 11 30.01 1016 10 16.0934 0 0
9:17 pm 21:17 Mostly Cloudy with Nearby Thunderstorms 79 26.1 71 21.7 77 77 E 9 15 30.01 1016 10 16.0934 0 0
9:27 pm 21:27 Cloudy with Thunderstorms 79 26.1 72 22.2 79 79 NNE 14 22 30.02 1017 10 16.0934 0 0
9:52 pm 21:52 Cloudy with Nearby Thunderstorms 77 25 71 21.7 82 82 ENE 16 26 30.04 1017 10 16.0934 0 0
10:07 pm 22:07 Cloudy with Thunderstorms 76 24.4 71 21.7 85 85 ENE 17 28 30.05 1018 10 16.0934 0 0
10:21 pm 22:21 Cloudy 75 23.9 70 21.1 84 84 E 13 20 30.06 1018 10 16.0934 0 0
10:32 pm 22:32 Cloudy with Nearby Thunderstorms 74 23.3 69 20.6 85 85 ENE 10 17 30.07 1018 10 16.0934 0 0
10:41 pm 22:41 Cloudy with Thunderstorms 75 23.9 70 21.1 84 84 NNE 17 28 30.08 1019 10 16.0934 0 0
10:52 pm 22:52 Cloudy with Thunderstorms 75 23.9 70 21.1 84 84 ENE 24 39 30.08 1019 10 16.0934 0 0
11:09 pm 23:09 Cloudy with Nearby Thunderstorms 74 23.3 69 20.6 85 85 E 23 37 30.07 1018 10 16.0934 0 0
11:17 pm 23:17 Cloudy with Nearby Thunderstorms 75 23.9 69 20.6 82 82 ESE 22 35 30.07 1018 10 16.0934 0 0
11:40 pm 23:40 Cloudy 74 23.3 70 21.1 88 88 E 16 26 30.09 1019 10 16.0934 0.001 0.001
11:52 pm 23:52 Cloudy 73 22.8 70 21.1 90 90 E 14 22 30.09 1019 10 16.0934 0.001 0.001

Powered by AerisWeather